| time (UTC) | temp F | wind direction | speed MPH | gust MPH | rain 1hr in | rain 24hr in | rain mn in | humidity % | barometer mb |
| 20260505024807 | 68 | 164 | 0.0 | 0.0 | 0.00 | 0.00 | 0.00 | 68 | 1002.2 |
| 20260505024304 | 68 | 196 | 0.0 | 0.0 | 0.00 | 0.00 | 0.00 | 68 | 1001.8 |
| 20260505023801 | 68 | 196 | 0.0 | 0.0 | 0.00 | 0.00 | 0.00 | 66 | 1001.9 |
| 20260505023258 | 67 | 196 | 0.0 | 0.0 | 0.00 | 0.00 | 0.00 | 69 | 1001.7 |
| 20260505022755 | 68 | 196 | 0.0 | 0.0 | 0.00 | 0.00 | 0.00 | 68 | 1001.7 |
| 20260505022252 | 68 | 196 | 0.0 | 0.0 | 0.00 | 0.00 | 0.00 | 68 | 1001.7 |
| 20260505021749 | 68 | 196 | 0.0 | 0.0 | 0.00 | 0.00 | 0.00 | 69 | 1001.5 |
| 20260505021246 | 68 | 196 | 0.0 | 0.0 | 0.00 | 0.00 | 0.00 | 68 | 1001.4 |
| 20260505020741 | 68 | 196 | 0.0 | 0.0 | 0.00 | 0.00 | 0.00 | 68 | 1001.4 |
| 20260505020237 | 68 | 196 | 0.0 | 0.0 | 0.00 | 0.00 | 0.00 | 67 | 1001.5 |
| 20260505015734 | 68 | 196 | 0.0 | 0.0 | 0.00 | 0.00 | 0.00 | 69 | 1001.3 |
| 20260505015231 | 68 | 196 | 0.0 | 0.0 | 0.00 | 0.00 | 0.00 | 69 | 1001.3 |
| 20260505014728 | 68 | 196 | 0.0 | 0.0 | 0.00 | 0.00 | 0.00 | 68 | 1001.1 |
| 20260505014225 | 69 | 196 | 0.0 | 0.0 | 0.00 | 0.00 | 0.00 | 68 | 1000.7 |
| 20260505013722 | 70 | 196 | 0.0 | 0.0 | 0.00 | 0.00 | 0.00 | 63 | 1001.2 |
| 20260505013219 | 71 | 196 | 0.0 | 0.0 | 0.00 | 0.00 | 0.00 | 61 | 1001.1 |
| 20260505012717 | 71 | 196 | 0.0 | 0.0 | 0.00 | 0.00 | 0.00 | 60 | 1000.8 |
| 20260505012214 | 71 | 196 | 0.0 | 0.0 | 0.00 | 0.00 | 0.00 | 61 | 1000.9 |
| 20260505011710 | 72 | 196 | 0.0 | 0.0 | 0.00 | 0.00 | 0.00 | 62 | 1000.7 |
| 20260505011208 | 73 | 197 | 0.0 | 0.0 | 0.00 | 0.00 | 0.00 | 58 | 1000.9 |
| 20260505010702 | 74 | 197 | 0.0 | 0.0 | 0.00 | 0.00 | 0.00 | 54 | 1000.5 |
| 20260505010200 | 75 | 197 | 0.0 | 0.0 | 0.00 | 0.00 | 0.00 | 52 | 1000.5 |
| 20260505005655 | 75 | 197 | 0.0 | 0.0 | 0.00 | 0.00 | 0.00 | 53 | 1000.6 |
| 20260505005153 | 76 | 197 | 0.0 | 0.0 | 0.00 | 0.00 | 0.00 | 51 | 1000.5 |
| 20260505004650 | 77 | 197 | 0.0 | 0.0 | 0.00 | 0.00 | 0.00 | 50 | 1000.5 |
| 20260505004146 | 77 | 197 | 0.0 | 0.0 | 0.00 | 0.00 | 0.00 | 50 | 1000.6 |
| 20260505003644 | 78 | 197 | 0.0 | 0.0 | 0.00 | 0.00 | 0.00 | 48 | 1000.3 |
| 20260505003141 | 78 | 236 | 3.0 | 3.0 | 0.00 | 0.00 | 0.00 | 46 | 1000.2 |
| 20260505002637 | 79 | 188 | 0.0 | 1.0 | 0.00 | 0.00 | 0.00 | 47 | 1000.2 |
| 20260505002135 | 79 | 162 | 2.0 | 2.0 | 0.00 | 0.00 | 0.00 | 45 | 1000.3 |
| 20260505001632 | 79 | 200 | 1.0 | 1.0 | 0.00 | 0.00 | 0.00 | 45 | 1000.2 |
| 20260505001130 | 79 | 189 | 1.0 | 3.0 | 0.00 | 0.00 | 0.00 | 45 | 1000.3 |
| 20260505000627 | 79 | 192 | 1.0 | 3.0 | 0.00 | 0.00 | 0.00 | 45 | 1000.2 |
| 20260505000125 | 79 | 230 | 2.0 | 2.0 | 0.00 | 0.00 | 0.00 | 45 | 1000.2 |
| 20260504235621 | 79 | 194 | 1.0 | 2.0 | 0.00 | 0.00 | 0.00 | 45 | 1000.5 |
| 20260504235117 | 79 | 210 | 3.0 | 5.0 | 0.00 | 0.00 | 0.00 | 43 | 1000.3 |
| 20260504234615 | 79 | 189 | 0.0 | 1.0 | 0.00 | 0.00 | 0.00 | 46 | 1000.3 |
| 20260504234112 | 80 | 192 | 0.0 | 3.0 | 0.00 | 0.00 | 0.00 | 46 | 1000.1 |
| 20260504233607 | 80 | 231 | 1.0 | 3.0 | 0.00 | 0.00 | 0.00 | 43 | 1000.2 |
| 20260504233104 | 80 | 180 | 1.0 | 2.0 | 0.00 | 0.00 | 0.00 | 44 | 1000.3 |
| 20260504232601 | 80 | 228 | 2.0 | 5.0 | 0.00 | 0.00 | 0.00 | 43 | 1000.3 |
| 20260504232058 | 80 | 232 | 1.0 | 5.0 | 0.00 | 0.00 | 0.00 | 42 | 1000.3 |
| 20260504231555 | 81 | 231 | 2.0 | 5.0 | 0.00 | 0.00 | 0.00 | 43 | 1000.2 |
| 20260504231051 | 82 | 226 | 1.0 | 6.0 | 0.00 | 0.00 | 0.00 | 41 | 1000.3 |
| 20260504230547 | 83 | 206 | 4.0 | 6.0 | 0.00 | 0.00 | 0.00 | 39 | 1000.2 |
| 20260504230046 | 83 | 208 | 1.0 | 2.0 | 0.00 | 0.00 | 0.00 | 39 | 1000.3 |
| 20260504225543 | 82 | 222 | 1.0 | 6.0 | 0.00 | 0.00 | 0.00 | 41 | 1000.3 |
| 20260504225040 | 82 | 251 | 2.0 | 6.0 | 0.00 | 0.00 | 0.00 | 41 | 1000.4 |
| 20260504224536 | 83 | 208 | 0.0 | 2.0 | 0.00 | 0.00 | 0.00 | 39 | 1000.1 |
| 20260504224034 | 82 | 210 | 1.0 | 2.0 | 0.00 | 0.00 | 0.00 | 39 | 1000.5 |
| 20260504223531 | 81 | 209 | 1.0 | 2.0 | 0.00 | 0.00 | 0.00 | 41 | 1000.3 |
| 20260504223026 | 80 | 186 | 2.0 | 5.0 | 0.00 | 0.00 | 0.00 | 40 | 1000.3 |
| 20260504222523 | 80 | 183 | 1.0 | 3.0 | 0.00 | 0.00 | 0.00 | 45 | 1000.5 |
| 20260504222021 | 80 | 175 | 0.0 | 3.0 | 0.00 | 0.00 | 0.00 | 41 | 1000.5 |
| 20260504221518 | 80 | 204 | 2.0 | 5.0 | 0.00 | 0.00 | 0.00 | 43 | 1000.4 |
| 20260504221015 | 80 | 188 | 1.0 | 3.0 | 0.00 | 0.00 | 0.00 | 41 | 1000.6 |
| 20260504220511 | 80 | 206 | 2.0 | 5.0 | 0.00 | 0.00 | 0.00 | 42 | 1000.7 |
| 20260504220008 | 80 | 238 | 1.0 | 3.0 | 0.00 | 0.00 | 0.00 | 42 | 1000.5 |
| 20260504215505 | 80 | 186 | 5.0 | 8.0 | 0.00 | 0.00 | 0.00 | 42 | 1000.6 |
| 20260504215003 | 81 | 209 | 4.0 | 9.0 | 0.00 | 0.00 | 0.00 | 43 | 1000.8 |
| 20260504214458 | 81 | 191 | 0.0 | 3.0 | 0.00 | 0.00 | 0.00 | 43 | 1000.7 |
| 20260504213955 | 80 | 170 | 0.0 | 2.0 | 0.00 | 0.00 | 0.00 | 45 | 1000.8 |
| 20260504213450 | 80 | 186 | 1.0 | 7.0 | 0.00 | 0.00 | 0.00 | 43 | 1000.9 |
| 20260504212948 | 80 | 181 | 4.0 | 6.0 | 0.00 | 0.00 | 0.00 | 42 | 1000.7 |
| 20260504212444 | 80 | 259 | 5.0 | 6.0 | 0.00 | 0.00 | 0.00 | 41 | 1000.8 |
| 20260504211942 | 81 | 202 | 4.0 | 10.0 | 0.00 | 0.00 | 0.00 | 42 | 1000.8 |
| 20260504211438 | 81 | 233 | 3.0 | 3.0 | 0.00 | 0.00 | 0.00 | 43 | 1000.7 |
| 20260504210936 | 82 | 229 | 3.0 | 6.0 | 0.00 | 0.00 | 0.00 | 41 | 1001.0 |
| 20260504210432 | 82 | 201 | 2.0 | 5.0 | 0.00 | 0.00 | 0.00 | 42 | 1000.7 |
| 20260504205929 | 82 | 183 | 3.0 | 5.0 | 0.00 | 0.00 | 0.00 | 42 | 1000.8 |
| 20260504205427 | 83 | 202 | 4.0 | 6.0 | 0.00 | 0.00 | 0.00 | 40 | 1000.8 |
| 20260504204925 | 82 | 140 | 3.0 | 3.0 | 0.00 | 0.00 | 0.00 | 45 | 1000.8 |
| 20260504204423 | 83 | 197 | 2.0 | 6.0 | 0.00 | 0.00 | 0.00 | 41 | 1000.9 |
| 20260504203922 | 82 | 191 | 2.0 | 5.0 | 0.00 | 0.00 | 0.00 | 39 | 1000.9 |
| 20260504203419 | 83 | 174 | 0.0 | 5.0 | 0.00 | 0.00 | 0.00 | 43 | 1000.9 |
| 20260504202915 | 82 | 231 | 3.0 | 5.0 | 0.00 | 0.00 | 0.00 | 40 | 1001.2 |
| 20260504202412 | 82 | 190 | 1.0 | 6.0 | 0.00 | 0.00 | 0.00 | 45 | 1001.1 |
| 20260504201908 | 82 | 278 | 7.0 | 9.0 | 0.00 | 0.00 | 0.00 | 41 | 1001.0 |
| 20260504201406 | 82 | 231 | 3.0 | 5.0 | 0.00 | 0.00 | 0.00 | 42 | 1001.0 |
| 20260504200903 | 82 | 263 | 4.0 | 6.0 | 0.00 | 0.00 | 0.00 | 43 | 1001.0 |
| 20260504200359 | 82 | 206 | 1.0 | 3.0 | 0.00 | 0.00 | 0.00 | 47 | 1001.1 |
| 20260504195856 | 81 | 148 | 4.0 | 6.0 | 0.00 | 0.00 | 0.00 | 43 | 1001.0 |
| 20260504195352 | 82 | 145 | 1.0 | 8.0 | 0.00 | 0.00 | 0.00 | 43 | 1001.2 |
| 20260504194849 | 82 | 115 | 3.0 | 6.0 | 0.00 | 0.00 | 0.00 | 45 | 1001.2 |
| 20260504194345 | 82 | 257 | 3.0 | 6.0 | 0.00 | 0.00 | 0.00 | 39 | 1001.2 |
| 20260504193841 | 81 | 129 | 2.0 | 2.0 | 0.00 | 0.00 | 0.00 | 41 | 1001.4 |
| 20260504193338 | 81 | 224 | 5.0 | 7.0 | 0.00 | 0.00 | 0.00 | 40 | 1001.4 |
| 20260504192837 | 81 | 162 | 1.0 | 3.0 | 0.00 | 0.00 | 0.00 | 42 | 1001.5 |
| 20260504192334 | 81 | 229 | 3.0 | 5.0 | 0.00 | 0.00 | 0.00 | 41 | 1001.3 |
| 20260504191833 | 80 | 217 | 1.0 | 7.0 | 0.00 | 0.00 | 0.00 | 43 | 1001.3 |
| 20260504191330 | 80 | 203 | 1.0 | 5.0 | 0.00 | 0.00 | 0.00 | 43 | 1001.4 |
| 20260504190825 | 80 | 216 | 5.0 | 6.0 | 0.00 | 0.00 | 0.00 | 40 | 1001.6 |
| 20260504190322 | 80 | 349 | 2.0 | 5.0 | 0.00 | 0.00 | 0.00 | 46 | 1001.3 |
| 20260504185818 | 80 | 35 | 3.0 | 5.0 | 0.00 | 0.00 | 0.00 | 43 | 1001.5 |
| 20260504185315 | 80 | 236 | 2.0 | 6.0 | 0.00 | 0.00 | 0.00 | 43 | 1001.7 |
| 20260504184811 | 79 | 197 | 5.0 | 8.0 | 0.00 | 0.00 | 0.00 | 42 | 1001.5 |
| 20260504184307 | 79 | 163 | 7.0 | 10.0 | 0.00 | 0.00 | 0.00 | 44 | 1001.5 |
| 20260504183803 | 79 | 195 | 3.0 | 7.0 | 0.00 | 0.00 | 0.00 | 45 | 1001.5 |
| 20260504183300 | 79 | 209 | 2.0 | 3.0 | 0.00 | 0.00 | 0.00 | 41 | 1001.6 |
| 20260504182758 | 79 | 263 | 2.0 | 7.0 | 0.00 | 0.00 | 0.00 | 43 | 1001.8 |
| 20260504182255 | 79 | 169 | 2.0 | 7.0 | 0.00 | 0.00 | 0.00 | 43 | 1001.8 |
| 20260504181753 | 79 | 142 | 3.0 | 6.0 | 0.00 | 0.00 | 0.00 | 45 | 1001.8 |
| 20260504181250 | 78 | 187 | 1.0 | 2.0 | 0.00 | 0.00 | 0.00 | 45 | 1001.7 |
| 20260504180749 | 78 | 168 | 2.0 | 7.0 | 0.00 | 0.00 | 0.00 | 44 | 1001.8 |
| 20260504180247 | 79 | 172 | 2.0 | 6.0 | 0.00 | 0.00 | 0.00 | 43 | 1002.1 |
| 20260504175744 | 79 | 199 | 2.0 | 6.0 | 0.00 | 0.00 | 0.00 | 43 | 1002.1 |
| 20260504175241 | 78 | 155 | 2.0 | 5.0 | 0.00 | 0.00 | 0.00 | 45 | 1002.0 |
| 20260504174739 | 78 | 186 | 3.0 | 5.0 | 0.00 | 0.00 | 0.00 | 43 | 1002.1 |
| 20260504174237 | 78 | 184 | 3.0 | 6.0 | 0.00 | 0.00 | 0.00 | 45 | 1002.0 |
| 20260504173733 | 78 | 208 | 3.0 | 6.0 | 0.00 | 0.00 | 0.00 | 44 | 1001.9 |
| 20260504173230 | 77 | 229 | 4.0 | 6.0 | 0.00 | 0.00 | 0.00 | 46 | 1002.2 |
| 20260504172727 | 77 | 214 | 3.0 | 7.0 | 0.00 | 0.00 | 0.00 | 44 | 1002.1 |
| 20260504172223 | 77 | 216 | 2.0 | 2.0 | 0.00 | 0.00 | 0.00 | 44 | 1002.2 |
| 20260504171720 | 77 | 119 | 4.0 | 5.0 | 0.00 | 0.00 | 0.00 | 46 | 1002.0 |
| 20260504171217 | 77 | 183 | 3.0 | 7.0 | 0.00 | 0.00 | 0.00 | 46 | 1002.2 |
| 20260504170713 | 77 | 180 | 0.0 | 3.0 | 0.00 | 0.00 | 0.00 | 50 | 1002.3 |
| 20260504170211 | 76 | 212 | 5.0 | 6.0 | 0.00 | 0.00 | 0.00 | 45 | 1002.1 |
| 20260504160129 | 76 | 188 | 2.0 | 3.0 | 0.00 | 0.00 | 0.00 | 46 | 1002.3 |
| 20260504151057 | 74 | 153 | 2.0 | 3.0 | 0.00 | 0.00 | 0.00 | 46 | 1002.4 |
| 20260504150554 | 73 | 162 | 3.0 | 6.0 | 0.00 | 0.00 | 0.00 | 49 | 1002.6 |
| 20260504141020 | 67 | 181 | 0.0 | 2.0 | 0.00 | 0.00 | 0.00 | 53 | 1002.9 |
| 20260504140516 | 68 | 213 | 3.0 | 6.0 | 0.00 | 0.00 | 0.00 | 53 | 1002.8 |
| 20260504130441 | 68 | 195 | 3.0 | 7.0 | 0.00 | 0.00 | 0.00 | 50 | 1002.4 |
| 20260504110328 | 64 | 203 | 1.0 | 3.0 | 0.00 | 0.00 | 0.00 | 53 | 1002.8 |
| 20260504100246 | 66 | 192 | 1.0 | 3.0 | 0.00 | 0.00 | 0.00 | 50 | 1003.4 |
| 20260504081639 | 65 | 153 | 4.0 | 5.0 | 0.00 | 0.00 | 0.00 | 51 | 1003.9 |
| 20260504081135 | 64 | 217 | 3.0 | 3.0 | 0.00 | 0.00 | 0.00 | 52 | 1003.9 |
| 20260504080632 | 64 | 162 | 0.0 | 1.0 | 0.00 | 0.00 | 0.00 | 55 | 1004.1 |
| 20260504080128 | 64 | 192 | 1.0 | 5.0 | 0.00 | 0.00 | 0.00 | 53 | 1004.2 |
| 20260504050444 | 58 | 180 | 0.0 | 1.0 | 0.00 | 0.00 | 0.00 | 76 | 1006.4 |
| 20260504045942 | 59 | 156 | 0.0 | 1.0 | 0.00 | 0.03 | 0.03 | 78 | 1006.7 |
| 20260504045437 | 58 | 156 | 0.0 | 1.0 | 0.00 | 0.03 | 0.03 | 76 | 1006.6 |
| 20260504044933 | 59 | 149 | 0.0 | 0.0 | 0.00 | 0.03 | 0.03 | 77 | 1006.7 |
| 20260504044431 | 59 | 145 | 1.0 | 1.0 | 0.00 | 0.03 | 0.03 | 75 | 1006.5 |
| 20260504043928 | 59 | 164 | 0.0 | 0.0 | 0.00 | 0.03 | 0.03 | 76 | 1006.4 |
| 20260504043425 | 59 | 164 | 0.0 | 1.0 | 0.00 | 0.03 | 0.03 | 75 | 1006.4 |
| 20260504042923 | 59 | 164 | 0.0 | 0.0 | 0.00 | 0.03 | 0.03 | 74 | 1006.6 |
| 20260504042419 | 59 | 164 | 0.0 | 1.0 | 0.00 | 0.03 | 0.03 | 75 | 1006.4 |
| 20260504041916 | 59 | 164 | 0.0 | 1.0 | 0.00 | 0.03 | 0.03 | 76 | 1006.5 |
| 20260504041412 | 59 | 166 | 0.0 | 1.0 | 0.00 | 0.03 | 0.03 | 76 | 1006.5 |
| 20260504040908 | 59 | 191 | 1.0 | 2.0 | 0.00 | 0.03 | 0.03 | 77 | 1006.3 |
| 20260504040406 | 59 | 152 | 1.0 | 2.0 | 0.00 | 0.03 | 0.03 | 76 | 1006.3 |
| 20260504035901 | 59 | 164 | 0.0 | 1.0 | 0.00 | 0.03 | 0.03 | 76 | 1006.3 |
| 20260504035359 | 59 | 166 | 0.0 | 0.0 | 0.00 | 0.03 | 0.03 | 76 | 1006.2 |
| 20260504034855 | 59 | 166 | 0.0 | 0.0 | 0.00 | 0.03 | 0.03 | 77 | 1006.5 |
| 20260504034353 | 59 | 166 | 0.0 | 0.0 | 0.00 | 0.03 | 0.03 | 75 | 1006.5 |
| 20260504033850 | 60 | 166 | 0.0 | 0.0 | 0.00 | 0.03 | 0.03 | 75 | 1006.6 |
| 20260504033348 | 61 | 166 | 0.0 | 0.0 | 0.00 | 0.03 | 0.03 | 74 | 1006.6 |
| 20260504032844 | 61 | 166 | 0.0 | 0.0 | 0.00 | 0.03 | 0.03 | 70 | 1006.9 |
| 20260504032342 | 62 | 166 | 0.0 | 0.0 | 0.00 | 0.03 | 0.03 | 73 | 1006.6 |
| 20260504031838 | 62 | 166 | 0.0 | 0.0 | 0.00 | 0.03 | 0.03 | 68 | 1006.8 |
| 20260504031336 | 62 | 166 | 0.0 | 0.0 | 0.00 | 0.03 | 0.03 | 68 | 1006.7 |
| 20260504030832 | 62 | 166 | 0.0 | 0.0 | 0.00 | 0.03 | 0.03 | 67 | 1006.8 |
| 20260504030329 | 62 | 166 | 0.0 | 0.0 | 0.00 | 0.03 | 0.03 | 69 | 1006.6 |
| 20260504025825 | 62 | 166 | 0.0 | 0.0 | 0.00 | 0.03 | 0.03 | 67 | 1006.9 |
| 20260504025322 | 63 | 166 | 0.0 | 0.0 | 0.00 | 0.03 | 0.03 | 69 | 1006.7 |